Etusivu
METAR-TAF:

METAR-TAF

Lentoasemat :

Burlington Municipal Airport

Burlington, Wisconsin, Yhdysvallat

Leveyspiiri: 42-41-26N, Pituuspiiri: 088-18-17W, korkeus merenpinnasta: 237 m

Tämänhetkinen sää

Tämä raportti tehtiin 24 minuuttia sitten, kello 09.35 UTC
tyyntä
Lämpötila -3°C
Kosteus 86%
Ilmanpaine 1019 hPa
Näkyvyys: 16.1 km

METAR: KBUU 170935Z AUTO 00000KT 10SM M03/M05 A3009 RMK AO2 T10301053

Aika: 03:59 (09:59 UTC)


TAF: puuttuu

Säähavainnot ja -ennusteet yli 4000 lentoasemalta (METAR- ja TAF-raportit).

Käytössä olevat sääasemat on merkitty karttaan keltaisilla ja punaisilla pisteillä.

Aseta hiiri pisteen päälle nähdäksesi sääaseman nimen.

Klikkaa sitten nähdäksesi säähavainnot ja -ennusteet.

Kartan vaihtaminen: klikkaa mustalla rastilla varustettuja vihreitä pisteitä, niin voit zoomata sisään; viivalla varustettua vihreää pistettä, niin voit zoomata ulos tai vihreitä nuolia, niin pääset viereisille kartoille.


METAR-TAF: